India Forums Logo

Hum ne li hai... Shapath

India Forums > Forum Index > Hum ne li hai... Shapath
Hum ne li hai... Shapath is a story of tough cops against the flawed system with thrilling and contemporary police cases weaved in.
<< | 1 | 2 | 3 | 4 | 5 | 6 | 7 | 8 | 9 | 10 | 11 | 12 | 13 | 14 | 15 | ... >>
TIDTopic SubjectStart DateLast Entry
2904391Gautam and Shikha's confession3/27/2012 1:17:18 AM3/27/2012 1:17:18 AM
2904407CV's ka attaychar...3/27/2012 1:28:11 AM3/27/2012 6:52:19 AM
2905422Abhi's love for Gautam!3/27/2012 11:02:55 AM3/29/2012 3:33:32 AM
2905465HNLHS Spoiler-28/03/20123/27/2012 11:18:49 AM3/28/2012 1:36:45 AM
290564127/03/2012 WU: Anand's Day3/27/2012 12:55:07 PM3/28/2012 4:05:53 AM
2905751crime show turns horror show3/27/2012 2:07:59 PM3/28/2012 12:19:38 PM
2907376**||~HNLS:WU:28-03-12~||**3/28/2012 12:50:51 PM3/28/2012 10:10:36 PM
2907385The Bhooton Wala Case3/28/2012 12:58:51 PM3/28/2012 2:27:41 PM
2908248spoiler 29th march3/29/2012 7:56:45 AM3/30/2012 6:57:28 AM
290890929/03/2012 WU: The Case Continues3/29/2012 12:52:43 PM3/31/2012 1:44:15 PM
2910972What Do You Think?!Shaapath for What?3/31/2012 1:25:03 AM3/31/2012 1:15:29 PM
2910977What do u think?3/31/2012 1:28:10 AM3/31/2012 8:24:43 AM
2911808ghost or not? what you guys think?3/31/2012 4:19:04 PM4/12/2012 7:10:08 PM
2912091Abhigyaan...4/1/2012 1:09:39 AM4/2/2012 1:02:04 AM
291210731st March 2012 WU :So much to solve4/1/2012 1:31:50 AM4/2/2012 1:08:33 AM
2912401Written Updates Sign-up4/1/2012 6:17:44 AM4/2/2012 4:08:38 AM
29127491st April 2012 WU : Shikha paralysed4/1/2012 12:34:53 PM4/2/2012 4:37:06 AM
2913043TB:Hasan Zaidi on being an inspector in reel life.4/2/2012 12:48:48 AM4/2/2012 12:48:48 AM
2913100spoiler: abhigyaan attackd,meets shikha4/2/2012 2:09:48 AM4/2/2012 6:24:29 AM
2913142GOTW : Instant Reactions4/2/2012 3:04:20 AM4/9/2012 8:18:55 AM
2913176TB: Hasan Zaidi on being an inspector in reel life4/2/2012 3:31:29 AM4/2/2012 3:38:09 AM
2913228COTW#9: Guess the Phrase & Winners4/2/2012 3:53:09 AM4/7/2012 1:14:37 PM
2913252*~Shapathian Of The Week#8~*4/2/2012 4:01:45 AM4/6/2012 12:34:29 AM
291409704/02/2012 WU: Abhi Attacked4/2/2012 11:48:09 AM4/2/2012 1:32:48 PM
2914675Shikha's carefulness...4/3/2012 1:50:48 AM8/3/2012 10:18:59 AM
2915222FF: Killer is Killed (Update pg. 14, Completed)4/3/2012 9:16:02 AM6/11/2012 8:05:36 AM
29159953 April 2012 WU : Deepak's twin(Completed)4/3/2012 6:42:00 PM4/4/2012 5:55:40 AM
2916186Shapath going biweekly : TC News4/3/2012 11:42:36 PM4/4/2012 5:54:39 AM
2916713*~!!HNLHS Chit Chat Corner!!~*#124/4/2012 7:17:17 AM8/14/2012 11:30:07 AM
2916982Inspector4/4/2012 9:23:56 AM8/7/2012 1:53:08 PM
291741304/04/12 WU: Bhushan on the Hunt4/4/2012 12:15:09 PM4/4/2012 12:15:09 PM
29192145 April 2012 WU : Bhushan confesses his crime4/5/2012 11:49:22 AM4/6/2012 2:25:16 PM
2919532Good Case4/5/2012 4:11:07 PM4/8/2012 5:48:08 AM
2921389gautam or abhigyaan4/6/2012 2:29:38 PM4/8/2012 11:39:49 PM
29218786 April 2012 WU : New Case..4/7/2012 12:31:16 AM4/7/2012 1:06:43 PM
2921902Attention Please!!4/7/2012 1:10:43 AM4/7/2012 1:07:51 PM
2921959News : Madhura Naik left Shapath4/7/2012 2:43:15 AM4/9/2012 5:40:49 AM
29230377th April HumNe Li Hai Shapth-Video WO/Dl4/7/2012 12:18:32 PM4/7/2012 12:18:32 PM
2923260Hospital-hospital game in Shapath4/7/2012 8:26:28 PM5/7/2012 1:29:32 AM
2923262Idealist character4/7/2012 8:30:30 PM4/8/2012 12:21:54 AM
2923263TOI: Madhura approaches CINTAA4/7/2012 8:34:24 PM4/9/2012 6:04:55 AM
2923394Madhura Naik4/8/2012 12:50:13 AM4/8/2012 12:50:13 AM
29234207 April 2012 WU : Headless corpses4/8/2012 1:35:09 AM4/8/2012 4:28:24 AM
2923829y this happening4/8/2012 11:20:19 AM4/9/2012 8:38:22 AM
2923855Now guyz wat is FOOGLE ???4/8/2012 11:42:11 AM4/13/2012 3:30:20 PM
29241838 April 2012 WU : Attack on Abhigyan4/9/2012 12:41:53 AM4/9/2012 9:49:12 AM
2924264Game... making our own shapath4/9/2012 2:44:15 AM6/5/2012 5:51:11 AM
2924271Abhigyaans partner4/9/2012 2:49:45 AM4/10/2012 9:29:22 AM
2924277*~Shapathian Of The Week#9~*-Closed4/9/2012 3:00:25 AM4/16/2012 6:24:49 AM
2925340TB: Life OK to revamp it's show slots ?4/9/2012 12:45:08 PM4/10/2012 5:50:05 AM
292610109/04/2012: Namrita, A Killer or a Victim?4/10/2012 4:17:08 AM4/11/2012 5:47:07 AM
2926383DOTW : Friend or Love4/10/2012 7:29:09 AM4/10/2012 12:02:40 PM
2926910Most Interesting Case4/10/2012 11:27:40 AM4/11/2012 2:19:59 PM
292794510/04/2012 WU: A Key?4/11/2012 5:48:40 AM4/11/2012 7:03:10 AM
2927982Shapath4/11/2012 6:40:01 AM4/11/2012 7:01:22 AM
2928319Shikha(Madhura)leaving SHAPATH!!!!!4/11/2012 9:55:43 AM4/12/2012 7:18:05 PM
292864811/04/2012 WU: Abhi in Danger???4/11/2012 12:33:00 PM4/12/2012 1:09:02 PM
2929521Chit Chat Corner4/12/2012 4:25:53 AM4/12/2012 7:05:04 PM
2930314abhi got shot4/12/2012 11:55:08 AM4/12/2012 1:12:27 PM
2930675Madhura comes as Shikha in Laxmi--Arjun's Mehendi4/12/2012 7:15:50 PM4/13/2012 9:15:47 PM
293099812 April 2012 WU : Abhigyan gets shot4/13/2012 1:53:43 AM4/13/2012 9:55:37 AM
2931352Will Abhigyan and Gautam be friends again?4/13/2012 7:16:48 AM4/14/2012 11:43:38 AM
2931981sop they got blue door4/13/2012 12:18:42 PM4/13/2012 12:43:22 PM
2932002-Guatam act's like Mohit In today's epis-4/13/2012 12:29:46 PM4/15/2012 9:02:54 AM
2932096Mystery behind the blue door..4/13/2012 1:35:05 PM4/14/2012 1:58:56 PM
2932442Gautam and Abhigyan's friendship4/13/2012 11:28:13 PM4/14/2012 1:30:12 AM
2933230End of another case!!!!4/14/2012 1:04:30 PM4/15/2012 5:31:53 AM
2933841WU: 14 - 4-124/15/2012 6:39:49 AM4/15/2012 10:45:19 AM
2934002AGOTW: Guess the Movie (Awards pg. 8)4/15/2012 9:36:46 AM4/23/2012 12:08:24 PM
2934238sop atlast they they tshowed abut shikha4/15/2012 12:17:55 PM4/15/2012 9:25:48 PM
2934779WU.. beggining of a new case.. 15/4/124/16/2012 2:54:26 AM4/17/2012 11:33:28 AM
2935248What is the new case about?!!!!!4/16/2012 8:26:08 AM4/18/2012 9:54:09 AM
293579516/04/2012 WU: Where is Khushi???4/16/2012 12:47:41 PM4/17/2012 5:50:55 AM
2936092*~Shapathian Of The Week#10~*-Closed4/16/2012 6:59:50 PM4/22/2012 1:43:52 AM
2936568*~Hamaari Adhuri Kahani Siggy Contest~*-Closed4/17/2012 4:37:03 AM4/27/2012 1:51:38 AM
<< | 1 | 2 | 3 | 4 | 5 | 6 | 7 | 8 | 9 | 10 | 11 | 12 | 13 | 14 | 15 | ... >>